Weather in Blankenberge

Belgium     51°18′49″N   3°08′04″E
temp.,
°C
wind,
m/s
gust,
m/s
humid.,
%
clouds,
%
prec.,
mm/h
press.,
hPa
HPBL,
m
16 january, sun
sun1601:00+3wsw3694100 0.0 1024137
04:00+6wnw6980100 0.1 1023508
07:00+6wsw3582100 0.1 1024101
10:00+6sw5996100 0.4 1025286
13:00+9sw468365 0.8 1025337
16:00+8w5988100 0.4 1026422
19:00+6nw36915 0.6 102997
22:00+7nw3790100 0.0 1031214
17 january, mon
mon1701:00+6nw349337 0.0 103366
04:00+5nw34925 0.0 103361
07:00+5wnw489510 0.0 1034171
10:00+6wnw489155 0.0 1036261
13:00+8nw58740 0.0 1037397
16:00+7nw47812 0.0 1037247
19:00+6nnw349025 0.0 103748
22:00+6nne22905 0.0 103915
18 january, tue
tue1801:00+5ne22920 0.0 103811
04:00+4ssw11920 0.0 103810
07:00+4sse11930 0.0 103811
10:00+4sse229359 0.0 103832
13:00+7sse338194 0.0 1038296
16:00+7sse228597 0.0 103758
19:00+4sse119190 0.0 103613
22:00+3se339399 0.0 103535
19 january, wed
wed1901:00+2sse34928 0.0 103366
04:00+2ssw349273 0.0 103162
07:00+1ssw36923 0.0 1028103
10:00+2ssw378736 0.0 1027155
13:00+5ssw4676100 0.0 1024259
16:00+6sw51186100 0.0 1021509
19:00+6sw51196100 0.5 1019450
22:00+7wnw71295100 1.4 1019637
20 january, thu
thu2001:00+7nnw9137528 1.5 1021935
04:00+5nnw9147298 0.1 1023885
07:00+4nnw101370100 0.3 10251087
10:00+4nnw111462100 0.4 10271541
13:00+4nnw10156494 0.8 10281835
16:00+5n9136783 0.4 10281286
19:00+5n7116293 0.5 1030456
22:00+5n59616 0.1 1032338